Saginaw, TX

1:16 PM CDT on September 27, 2016 (GMT -0500)
Fort Worth Meacham International

Weather History for KFTW - June, 2014

Change the Weather History Date:

Tuesday, June 10, 2014

  Actual Average Record
Temperature  
Mean Temperature 75 °F -  
Max Temperature 84 °F 87 °F 99 °F (2006)
Min Temperature 66 °F 67 °F 64 °F (1997)
Cooling Degree Days 10    
Growing Degree Days 25 (Base 50)    
Moisture  
Dew Point 59 °F    
Average Humidity 60    
Maximum Humidity 73    
Minimum Humidity 44    
Precipitation  
Precipitation 0.00 in - - ()
Sea Level Pressure  
Sea Level Pressure 29.82 in    
Wind  
Wind Speed 11 mph (WNW)    
Max Wind Speed 20 mph    
Max Gust Speed 26 mph    
Visibility 10 miles    
Events      
Averages and records for this station are not official NWS values.
T = Trace of Precipitation, MM = Missing Value Source: NWS Daily Summary

Daily Weather History Graph

Daily Weather History Graph

Search for Another Location

Airport or City:

Trip Planner

Search our weather history database for the weather conditions in past years. The results will help you decide how hot, cold, wet, or windy it might be!

Date:

Astronomy

Jun. 10, 2014 Rise Set
Actual Time 6:20 AM CDT 8:37 PM CDT
Civil Twilight 5:52 AM CDT 9:05 PM CDT
Nautical Twilight 5:17 AM CDT 9:40 PM CDT
Astronomical Twilight 4:39 AM CDT 10:18 PM CDT
Moon 6:10 PM CDT (6/10) 4:18 AM CDT (6/10)
Length of Visible Light 15h 13m
Length of Day
14h 16m
Waxing Gibbous, 92% of the Moon is Illuminated
Jun 10
Waxing Gibbous
Jun 12
Full
Jun 19
Last Quarter
Jun 27
New
Jul 5
First Quarter

Hourly Weather History & Observations

Time (CDT) Temp. Heat Index Dew Point Humidity Pressure Visibility Wind Dir Wind Speed Gust Speed Precip Events Conditions
12:53 AM 70.0 °F - 55.9 °F 61% 29.75 in 10.0 mi WNW 11.5 mph 20.7 mph N/A   Clear
1:53 AM 69.1 °F - 57.0 °F 65% 29.75 in 10.0 mi WNW 12.7 mph - N/A   Clear
2:53 AM 68.0 °F - 57.0 °F 68% 29.76 in 10.0 mi WNW 13.8 mph - N/A   Clear
3:53 AM 66.9 °F - 57.0 °F 70% 29.75 in 10.0 mi WNW 11.5 mph - N/A   Clear
4:53 AM 66.0 °F - 57.0 °F 73% 29.76 in 10.0 mi West 9.2 mph - N/A   Clear
5:53 AM 66.0 °F - 57.0 °F 73% 29.78 in 10.0 mi West 8.1 mph - N/A   Mostly Cloudy
6:53 AM 66.9 °F - 57.0 °F 70% 29.79 in 10.0 mi West 10.4 mph - N/A   Overcast
7:53 AM 69.1 °F - 57.0 °F 65% 29.81 in 10.0 mi WNW 12.7 mph 21.9 mph N/A   Clear
8:53 AM 71.1 °F - 57.9 °F 63% 29.81 in 10.0 mi WNW 13.8 mph - N/A   Partly Cloudy
9:53 AM 73.4 °F - 59.0 °F 61% 29.85 in 10.0 mi WNW 16.1 mph 26.5 mph N/A   Partly Cloudy
10:53 AM 75.9 °F - 60.1 °F 58% 29.83 in 10.0 mi WNW 18.4 mph 26.5 mph N/A   Partly Cloudy
11:53 AM 77.0 °F - 60.1 °F 56% 29.85 in 10.0 mi NW 15.0 mph 24.2 mph N/A   Overcast
12:53 PM 79.0 °F - 61.0 °F 54% 29.86 in 10.0 mi NW 19.6 mph 25.3 mph N/A   Overcast
1:53 PM 80.6 °F 81.5 °F 60.8 °F 51% 29.88 in 10.0 mi WNW 15.0 mph 23.0 mph N/A   Mostly Cloudy
2:53 PM 80.1 °F 80.7 °F 59.0 °F 48% 29.85 in 10.0 mi WNW 15.0 mph 21.9 mph N/A   Mostly Cloudy
3:53 PM 82.4 °F 82.9 °F 60.8 °F 48% 29.86 in 10.0 mi NW 13.8 mph 20.7 mph N/A   Partly Cloudy
4:53 PM 84.0 °F 84.0 °F 60.1 °F 44% 29.83 in 10.0 mi WNW 13.8 mph 19.6 mph N/A   Partly Cloudy
5:53 PM 82.4 °F 82.9 °F 60.8 °F 48% 29.84 in 10.0 mi WNW 8.1 mph 17.3 mph N/A   Scattered Clouds
6:53 PM 82.9 °F 82.8 °F 59.0 °F 44% 29.80 in 10.0 mi WNW 10.4 mph - N/A   Partly Cloudy
7:53 PM 81.0 °F 81.6 °F 60.1 °F 49% 29.80 in 10.0 mi NW 5.8 mph - N/A   Clear
8:53 PM 78.1 °F - 60.1 °F 54% 29.81 in 10.0 mi NW 3.5 mph - N/A   Clear
9:53 PM 75.2 °F - 62.6 °F 65% 29.85 in 10.0 mi Calm Calm - N/A   Clear
10:53 PM 73.9 °F - 63.0 °F 68% 29.84 in 10.0 mi Calm Calm - N/A   Clear
11:53 PM 72.0 °F - 63.0 °F 73% 29.86 in 10.0 mi Calm Calm - N/A   Clear